Simultaneous Nadir Overpasses (SNOs) Predictions

Prediction of SNOs between GOES-15 and LANDSAT-8 Satellite Orbit:

Table of predicted SNOs for the next 14.0 days since TLE Epoch: 10/12/2019
Index Date Time (GOES-15) GOES-15 Lat,Lon LANDSAT-8 Lat,Lon Distance(km) Time Diff (sec)
1 10/12/2019 18:43:12 -0.30,-127.98 -0.30,-128.00 2.71 80
2 10/14/2019 18:33:41 -0.30,-128.04 -0.93,-125.05 340.48 80
3 10/15/2019 06:55:05 0.31,-128.07 -0.18,-130.24 246.85 80
4 10/17/2019 06:40:15 0.30,-128.13 0.51,-127.29 95.49 80
5 10/17/2019 19:01:30 -0.30,-128.12 0.63,-132.44 491.40 80
6 10/19/2019 06:28:04 0.30,-128.17 1.15,-124.34 436.95 80
7 10/19/2019 18:49:19 -0.30,-128.17 -0.00,-129.49 149.97 80
8 10/21/2019 18:39:48 -0.29,-128.21 -0.64,-126.53 190.72 80
9 10/22/2019 07:01:12 0.29,-128.24 -0.47,-131.72 396.15 80
10 10/24/2019 06:49:01 0.29,-128.27 0.17,-128.77 56.14 80




NCC Satellite Simultaneous Nadir Overpasses (SNOs) Prediction Service
